Location: Unspecified
(0.0000°N, 0.0000°E)
Time: 23:07:34
(UTC+02:00)

Tiangong 1 - Visible Passes

Search period start: 04 May 2015 00:00
Search period end: 14 May 2015 00:00
Orbit: 382 x 396 km, 42.8° (Epoch: 04 May)

Date Brightness Start Highest point End Pass type
(mag) Time Alt. Az. Time Alt. Az. Time Alt. Az.
07 May 1.6 20:54:51 10° SSW 20:57:52 38° SE 20:58:34 33° ESE visible
08 May 3.6 21:33:49 10° W 21:36:22 21° NW 21:37:40 17° N visible
09 May 1.7 20:34:56 10° SW 20:38:06 59° NW 20:41:14 10° NE visible
11 May 3.5 07:07:54 10° NNW 07:10:35 26° NE 07:13:18 10° ESE visible
12 May 4.5 06:11:33 10° NNE 06:12:10 11° NE 06:12:57 10° ENE visible
13 May 1.0 06:48:23 18° NW 06:50:34 88° NE 06:53:43 10° SE visible
